Weather in Rio Grande

Brazil     32°04′14″S   52°10′11″W
temp.,
°C
wind,
m/s
gust,
m/s
humid.,
%
clouds,
%
prec.,
mm/h
press.,
hPa
HPBL,
m
10 april, sat
sat1000:00+21ese129195 0.1 101423
03:00+20s229593 0.8 101427
06:00+21s2497100 1.5 1014126
09:00+22ene2391100 2.4 1014217
12:00+25ne3480100 0.1 1012535
15:00+24ese3385100 0.4 1010323
18:00+22ese3797100 2.2 1010268
21:00+22ene3897100 2.5 1011284
11 april, sun
sun1100:00+21ne31094100 0.0 1010294
03:00+21nne31094100 0.0 1007222
06:00+21nne398997 0.0 1006174
09:00+22wnw31382100 0.0 1008450
12:00+25wnw81968100 0.0 10071397
15:00+19w8177229 0.1 1008992
18:00+19wsw81571100 0.0 10111289
21:00+18wsw7136820 0.0 10131260
12 april, mon
mon1200:00+17wsw6117693 0.0 10151044
03:00+16wsw511790 0.1 1015734
06:00+17sw397192 0.0 1017530
09:00+18ssw3871100 0.0 1019522
12:00+22s345664 0.1 10201545
15:00+23sse335234 0.1 10191472
18:00+19sse36710 0.0 1020261
21:00+16s22800 0.0 102174
13 april, tue
tue1300:00+15s12840 0.0 102163
03:00+14sw128810 0.0 102157
06:00+13sw229191 0.0 102259
09:00+18ssw12720 0.0 1023268
12:00+22ese33550 0.0 10231278
15:00+22ese33570 0.0 10211104
18:00+18ese24760 0.0 1022150
21:00+16ese35800 0.0 1022157
14 april, wed
wed1400:00+16e35800 0.0 1022170
03:00+17e35770 0.0 1020173
06:00+17e367511 0.0 1019211
09:00+21ene577082 0.1 1021937
12:00+23ene57540 0.1 10201493
15:00+23ene575899 0.1 10181443
18:00+21ene5970100 0.0 1018606
21:00+21ene610741 0.0 1019703